THOR ABLESTAR DEB, 330

Orbit data source: Space-Track

THOR ABLESTAR DEB, 330 is space debris in LEO originally from a launch on Thu, 29 Jun 1961 UTC launched from the Air Force Eastern Test Range (AFETR). Debris objects in space refer to the collection of defunct objects orbiting the Earth. Examples of debris include non-operational satellites, rocket bodies, and fragments generated from explosions, collisions, or faulty payload assembly.

Loading next visibility...
Identifier
330, 1961-015DG
Orbit
LEO
Country
Flag of USUS
Related business
Manufacturer
Unknown
Mission
Spacecraft
Bus & Motor
Unknown
Mass
Unknown
Launch date (UTC)
1961-06-29 (65 years ago)
Launch vehicle
Unknown
Launch site
Air Force Eastern Test Range (AFETR)
Object type
Payload
Rocket body
Debris
Shape & HBR
Unknown shape, 0.1 m
Radar Cross Section
Small (<0.1 m²)

Expand to show TLE details & history
Last TLE update: 23 hours ago

TLE from 23 hours ago
0 THOR ABLESTAR DEB
1 00330U 61015DG  26124.22530643  .00000560  00000-0  38031-3 0  9998
2 00330  66.9800  53.2590 0044740 159.1899 201.1025 14.06721688290524
Epoch: 2026-05-04T05:24Z
TLE epoch observation values (Epoch: 2026-05-04T05:24:26.475Z)
Latitude
0.00006°
Longitude
110.03116°
Altitude
902.996 km
Speed
7.385 km/s
True Right ascension
03h 33m 02s
True Declination
0° 00' 00"
Sunlit
Object was in daylight at epoch
Visualization orbit readout
Latitude
Unknown
Longitude
Unknown
Altitude
Unknown
Speed
Unknown
Apparent Right ascension
Unknown
Apparent Declination
Unknown
Sunlit
N/A
Visualization observer readout
Local Sidereal Time
12:39:46
Azimuth
Unknown
Elevation
Unknown
Doppler factor
Unknown
Orbital elements
Apogee altitude
901.396 km
Perigee altitude
836.549 km
Semi-major axis
7,247.109 km
Eccentricity
0.00447
Inclination
66.98°
RAAN
53.259°
Arg. of periapsis
159.1899°
True anomaly
200.91887°
Mean anomaly
201.1025°
Eccentric anomaly
201.01059°
Mean motion
3.518 °/min
Orbital period
102.33 mins
BSTAR
0.00038031
Loading maneuver chart data...
Computing Atmospheric mass density...
Loading historical data...
Loading historical data...
Loading historical data...
Loading historical data...
Loading historical data...
Loading historical data...
Loading historical data...

Documentation

Showing up to 5 results
|